Regional Weather Roundup
Issued by NWS

Home | Current Version | Previous Version | Text Only | Print | Product List | Glossary On
Versions: 1 2 3 4 5 6 7 8 9 10 11 12 13 14 15 16 17 18 19 20 21 22 23 24 25 26 27
000
ASUS46 KPQR 270710
RWROR

OREGON REGIONAL WEATHER ROUNDUP
NATIONAL WEATHER SERVICE PORTLAND OR
1100 PM PST SUN FEB 26 2017

NOTE: "FAIR" INDICATES FEW OR NO CLOUDS BELOW 12,000 FEET WITH
NO SIGNIFICANT WEATHER AND/OR OBSTRUCTIONS TO VISIBILITY.

ORZ001>013-270800-
NORTHWEST OREGON


CITY           SKY/WX    TMP DP  RH WIND       PRES   REMARKS
ASTORIA        CLEAR     33  31  92 SE3       29.77S
NEWPORT        CLEAR     34  32  93 CALM      29.81R
PORTLAND       MOCLDY    37  35  92 E5        29.79R WCI  33
VANCOUVER WA   CLOUDY    39  37  92 SE3       29.78S
SCAPPOOSE      CLOUDY    38  37  97 CALM      29.78S
HILLSBORO      CLOUDY    39  37  92 CALM      29.77S
AURORA         LGT RAIN  38  35  89 S5        29.79R WCI  34
MCMINNVILLE    CLOUDY    38  36  92 CALM      29.79R
SALEM          CLOUDY    38  34  85 S6        29.78R WCI  33
CORVALLIS        N/A     34  30  86 CALM      29.78S VSB<1/4
EUGENE         PTCLDY    34  34 100 S5        29.79S WCI  30
$$

ORZ021-028-270800-
SOUTHWEST OREGON


CITY           SKY/WX    TMP DP  RH WIND       PRES   REMARKS
NORTH BEND     CLOUDY    37  37 100 SE10      29.83S WCI  30
BROOKINGS      LGT RAIN  38  36  92 VRB6      29.86S WCI  33
ROSEBURG       CLOUDY    36  34  92 SE3       29.81S
SEXTON SUMMIT  SNOW      27  24  89 SW12G21   29.69S VSB 1/4 WCI  17
MEDFORD        CLOUDY    36  31  82 S6        29.80S WCI  31
$$

ORZ014>016-041-270800-
COLUMBIA GORGE


CITY           SKY/WX    TMP DP  RH WIND       PRES   REMARKS
TROUTDALE      CLOUDY    39  37  92 CALM      29.79R
THE DALLES     PTCLDY    33  30  88 E3        29.76R
$$

ORZ029>031-041-044-049-050-061>064-502-503-505>511-270800-
EASTERN OREGON


CITY           SKY/WX    TMP DP  RH WIND       PRES   REMARKS
REDMOND        MOCLDY    25  18  74 CALM      29.65S
BEND           PTCLDY    28  19  69 W6        29.65R WCI  22
PRINEVILLE     MOCLDY    27  21  80 CALM      29.65S
KLAMATH FALLS  CLOUDY    25  22  88 SW5       29.69R WCI  19
LAKEVIEW       MOCLDY    19  12  73 SW6       29.67R WCI  11
HERMISTON      FLURRIES  35  34  96 W7        29.72R WCI  29
PENDLETON      SNOW      32  32 100 NW7       29.67S VSB 1/2 WCI  26
JOHN DAY       MOCLDY    25  22  91 CALM      29.63S
MEACHAM        LGT SNOW  27  23  85 CALM      29.57R VSB 3/4
LA GRANDE      CLOUDY    32  27  80 S9        29.61S WCI  24
BAKER CITY     CLOUDY    28  25  88 E9        29.60F WCI  19
BURNS          MOCLDY    15  12  88 W5        29.63S WCI   8
ROME             N/A     28  24  85 S6        29.62F WCI  22
ONTARIO        LGT SNOW  30  28  92 W6        29.70R FOG     WCI  24
$$




USA.gov is the U.S. government's official web portal to all federal, state and local government web resources and services.